Regional Weather Roundup
Issued by NWS

Home | Current Version | Previous Version | Text Only | Print | Product List | Glossary On
Versions: 1 2 3 4 5 6 7 8 9 10 11 12 13 14 15 16 17 18 19 20 21 22 23 24 25 26 27 28 29 30 31 32 33 34 35 36 37 38 39 40 41 42 43 44 45 46 47 48 49 50
000
ASUS43 KOAX 271810
RWRNE

WEATHER ROUNDUP FOR NEBRASKA
NATIONAL WEATHER SERVICE OMAHA NE
100 PM CDT WED AUG 27 2014

NOTES: SATELLITE DATA IS BEING USED TO AUGMENT CLOUD COVER ABOVE
       12000 FEET.
       "FAIR" INDICATES FEW OR NO CLOUDS BELOW 12,000 FEET WITH NO
       SIGNIFICANT WEATHER AND/OR OBSTRUCTIONS TO VISIBILITY.

  * THESE STATIONS DO NOT REPORT WEATHER SUCH AS RAIN...SNOW OR FOG.

NEZ001>004-019>022-054>056-271900-
NEBRASKA PANHANDLE

CITY           SKY/WX    TMP DP  RH WIND       PRES   REMARKS
SCOTTSBLUFF    LGT RAIN  70  64  81 SE5       30.12R
6HR MIN TEMP:  61; 6HR MAX TEMP:  71; 6HR PCP: TRACE;

ALLIANCE       CLOUDY    76  60  57 SE16      30.11F
6HR MIN TEMP:  60; 6HR MAX TEMP:  76; 6HR PCP:  0.18;

CHADRON        CLOUDY    74  62  66 NE8       30.10S
6HR MIN TEMP:  62; 6HR MAX TEMP:  74;

KIMBALL        CLOUDY    71  59  65 S8        30.14S
SIDNEY         CLOUDY    75  59  57 S10       30.13F
6HR MIN TEMP:  59; 6HR MAX TEMP:  76;

$$

NEZ057>060-069>072-079>082-271900-
SOUTHWEST NEBRASKA

CITY           SKY/WX    TMP DP  RH WIND       PRES   REMARKS
NORTH PLATTE   CLOUDY    72  66  81 E16       30.12F
6HR MIN TEMP:  66; 6HR MAX TEMP:  76;

IMPERIAL       CLOUDY    75  64  68 S16       30.10F
6HR MIN TEMP:  63; 6HR MAX TEMP:  75;

LEXINGTON      CLOUDY    72  68  87 E13       30.14F
MCCOOK         PTSUNNY   77  65  66 SE10      30.11F
6HR MIN TEMP:  67; 6HR MAX TEMP:  77;

OGALLALA       CLOUDY    73  62  69 S14       30.10F
$$

NEZ005>010-023>029-035>040-094-271900-
NORTH CENTRAL NEBRASKA

CITY           SKY/WX    TMP DP  RH WIND       PRES   REMARKS
VALENTINE      CLOUDY    75  66  73 SE9       30.12S
6HR MIN TEMP:  68; 6HR MAX TEMP:  76;

AINSWORTH      CLOUDY    70  65  84 SE10      30.14S
BROKEN BOW     CLOUDY    71  67  87 SE10      30.14F
6HR MIN TEMP:  69; 6HR MAX TEMP:  71; 6HR PCP: TRACE;

O`NEILL        CLOUDY    70  68  93 SE9       30.14S
ORD            LGT RAIN  69  65  86 SE13      30.13F
6HR MIN TEMP:  67; 6HR MAX TEMP:  69; 6HR PCP: TRACE;

THEDFORD       CLOUDY    77  65  67 SE13G20   30.14S
$$

NEZ041-046>049-061>064-073>077-083>087-271900-
SOUTH CENTRAL NEBRASKA

CITY           SKY/WX    TMP DP  RH WIND       PRES   REMARKS
GRAND ISLAND   PTSUNNY   73  68  84 E12       30.14F
6HR MIN TEMP:  68; 6HR MAX TEMP:  73; 6HR PCP:  0.04;

AURORA         PTSUNNY   73  70  92 E7        30.13F
HASTINGS       CLOUDY    73  66  78 E12       30.14F
6HR MIN TEMP:  68; 6HR MAX TEMP:  74; 6HR PCP:  0.02;

HEBRON         PTSUNNY   78  67  69 E6        30.13S
HOLDREGE       CLOUDY    72  69  89 E13       30.14S
KEARNEY *      CLOUDY    72  68  88 E15       30.15F
YORK           PTSUNNY   75 N/A N/A E10       30.14F
$$

NEZ011>018-030>034-042>045-271900-
NORTHEAST NEBRASKA

CITY           SKY/WX    TMP DP  RH WIND       PRES   REMARKS
NORFOLK        LGT RAIN  70  67  90 SE13G24   30.13R
6HR MIN TEMP:  65; 6HR MAX TEMP:  70; 6HR PCP:  0.99;

ALBION         CLOUDY    68  65  92 SE9       30.15S
BLAIR          CLOUDY    71  68  91 SE7       30.16S
FREMONT        RAIN      71  69  93 SE10      30.14F
TEKAMAH        LGT RAIN  72  69  90 SE9       30.14F
6HR MIN TEMP:  66; 6HR MAX TEMP:  72; 6HR PCP:  0.57;

WAYNE          CLOUDY    67  65  94 SE8       30.15R
$$

NEZ050>053-065>068-078-088>093-271900-
SOUTHEAST NEBRASKA

CITY           SKY/WX    TMP DP  RH WIND       PRES   REMARKS
LINCOLN        LGT RAIN  71  69  93 E13       30.15F
6HR MIN TEMP:  70; 6HR MAX TEMP:  72; 6HR PCP:  0.63;

OMAHA EPPLEY   LGT RAIN  70  67  90 SE12      30.16S
6HR MIN TEMP:  68; 6HR MAX TEMP:  70; 6HR PCP:  1.44;

BEATRICE       FAIR      77  73  87 SE6       30.12F
FALLS CITY     LGT RAIN  72  70  93 E5        30.13F
6HR MIN TEMP:  69; 6HR MAX TEMP:  72; 6HR PCP:  0.54;

NEBRASKA CITY  CLOUDY    70  70 100 NE10      30.15F
PLATTSMOUTH    TSTM      69  67  92 SE6       30.18R
$$

NEZ044-045-051>053-067-271900-
OMAHA AREA

CITY           SKY/WX    TMP DP  RH WIND       PRES   REMARKS
OMAHA EPPLEY   LGT RAIN  70  67  90 SE12      30.16S
6HR MIN TEMP:  68; 6HR MAX TEMP:  70; 6HR PCP:  1.44;

BLAIR          CLOUDY    71  68  91 SE7       30.16S
FREMONT        RAIN      71  69  93 SE10      30.14F
MILLARD        HVY RAIN  70  68  95 SE9       30.16R VSB 3/4
OFFUTT AFB     PTSUNNY   70  70 100 SE8       30.15F
PLATTSMOUTH    TSTM      69  67  92 SE6       30.18R
WAHOO          LGT RAIN  71  67  89 SE9       30.15F
$$



USA.gov is the U.S. government's official web portal to all federal, state and local government web resources and services.